This is the latest recevied weather packets stored in our database for station/object W1SCW. If no packets are shown the sender has not sent any weather packets the latest 10 day(s).
| Time | Temp. | Humidity | Pressure | Rain* | Wind** | Luminosity | Snow |
|---|---|---|---|---|---|---|---|
| 1777872093 | 17.22° C | 72% | 1016.5 hPa | 0 mm | - | 0 W/m² | - |
| 1777871790 | 17.22° C | 71% | 1016.4 hPa | 0 mm | - | 0 W/m² | - |
| 1777871486 | 17.78° C | 71% | 1016.6 hPa | 0 mm | - | 0 W/m² | - |
| 1777871183 | 17.78° C | 70% | 1016.7 hPa | 0 mm | - | 0 W/m² | - |
| 1777870880 | 17.78° C | 69% | 1016.8 hPa | 0 mm | - | 0 W/m² | - |
| 1777870577 | 17.78° C | 68% | 1016.6 hPa | 0 mm | - | 0 W/m² | - |
| 1777870272 | 18.33° C | 68% | 1016.8 hPa | 0 mm | - | 0 W/m² | - |
| 1777869970 | 18.33° C | 67% | 1016.8 hPa | 0 mm | - | 0 W/m² | - |
| 1777869667 | 18.33° C | 68% | 1016.9 hPa | 0 mm | - | 0 W/m² | - |
| 1777869364 | 18.33° C | 67% | 1017.1 hPa | 0 mm | - | 0 W/m² | - |
| 1777869061 | 18.33° C | 67% | 1016.9 hPa | 0 mm | - | 0 W/m² | - |
| 1777868758 | 18.33° C | 66% | 1016.9 hPa | 0 mm | - | 0 W/m² | - |
| 1777868455 | 18.89° C | 65% | 1017 hPa | 0 mm | - | 0 W/m² | - |
| 1777868150 | 18.89° C | 65% | 1016.9 hPa | 0 mm | - | 0 W/m² | - |
| 1777867847 | 18.89° C | 64% | 1016.9 hPa | 0 mm | - | 0 W/m² | - |
| 1777867545 | 18.89° C | 64% | 1017.1 hPa | 0 mm | - | 0 W/m² | - |
| 1777867242 | 19.44° C | 63% | 1016.9 hPa | 0 mm | - | 0 W/m² | - |
| 1777866938 | 18.89° C | 63% | 1016.9 hPa | 0 mm | - | 0 W/m² | - |
| 1777866635 | 19.44° C | 63% | 1016.9 hPa | 0 mm | - | 0 W/m² | - |
| 1777866333 | 19.44° C | 62% | 1017 hPa | 0 mm | - | 0 W/m² | - |
| 1777866029 | 19.44° C | 62% | 1017.1 hPa | 0 mm | - | 0 W/m² | - |
| 1777865728 | 19.44° C | 61% | 1017.1 hPa | 0 mm | - | 0 W/m² | - |
| 1777865425 | 19.44° C | 62% | 1017.1 hPa | 0 mm | - | 0 W/m² | - |
| 1777865121 | 19.44° C | 61% | 1017.1 hPa | 0 mm | - | 0 W/m² | - |
| 1777864818 | 20° C | 60% | 1016.9 hPa | 0 mm | - | 0 W/m² | - |
* Rain latest hour (hover to see other rain measurements)
** Current wind speed in m/s (hover to see current wind gust speed)